• En España
  • Lista de países
  • Para 7 días
  • Temperatura del agua
  • Mapa Satelital
  • El tiempo en el mapa
  • Informadores
  • user-avatar
    Iniciar sesión

    Tiempo cada hora Malanje

    Hoy, 24 Agosto, Jueves

    Tiempo Temperatura Precipitaciones Viento Presión Humedad
    00:00 +23°C° 0 mm 2 mps 665 mmHg 54%
    01:00 +20°C° 0 mm 2 mps 665 mmHg 68%
    02:00 +19°C° 0 mm 2 mps 665 mmHg 72%
    03:00 +19°C° 0 mm 2 mps 664 mmHg 77%
    04:00 +18°C° 0 mm 2 mps 664 mmHg 82%
    05:00 +18°C° 0 mm 2 mps 665 mmHg 82%
    06:00 +18°C° 0 mm 2 mps 665 mmHg 82%
    07:00 +18°C° 0 mm 2 mps 665 mmHg 82%
    08:00 +21°C° 0 mm 2 mps 666 mmHg 67%
    09:00 +26°C° 0 mm 2 mps 667 mmHg 52%
    10:00 +29°C° 0 mm 2 mps 668 mmHg 37%
    11:00 +32°C° 0 mm 1 mps 668 mmHg 30%
    12:00 +35°C° 0 mm 1 mps 668 mmHg 24%
    13:00 +39°C° 0 mm 1 mps 668 mmHg 17%
    14:00 +37°C° 0 mm 1 mps 667 mmHg 17%
    15:00 +36°C° 0 mm 1 mps 666 mmHg 17%
    16:00 +36°C° 0 mm 1 mps 665 mmHg 16%
    17:00 +35°C° 0 mm 2 mps 665 mmHg 20%
    18:00 +31°C° 0 mm 2 mps 665 mmHg 24%
    19:00 +29°C° 0 mm 2 mps 665 mmHg 28%
    20:00 +28°C° 0 mm 3 mps 665 mmHg 35%
    21:00 +27°C° 0 mm 3 mps 665 mmHg 42%
    22:00 +25°C° 0 mm 3 mps 666 mmHg 50%
    23:00 +24°C° 0 mm 3 mps 665 mmHg 56%

    Mañana, 25 Agosto, Viernes

    Tiempo Temperatura Precipitaciones Viento Presión Humedad
    00:00 +22°C° 0 mm 4 mps 665 mmHg 61%
    01:00 +21°C° 0 mm 4 mps 665 mmHg 67%
    02:00 +21°C° 0 mm 4 mps 665 mmHg 69%
    03:00 +20°C° 0 mm 3 mps 664 mmHg 72%
    04:00 +19°C° 0 mm 3 mps 664 mmHg 75%
    05:00 +19°C° 0 mm 3 mps 664 mmHg 75%
    06:00 +19°C° 0 mm 2 mps 664 mmHg 76%
    07:00 +19°C° 0 mm 2 mps 665 mmHg 77%
    08:00 +23°C° 0 mm 2 mps 665 mmHg 64%
    09:00 +26°C° 0 mm 2 mps 666 mmHg 50%
    10:00 +29°C° 0 mm 2 mps 667 mmHg 37%
    11:00 +32°C° 0 mm 2 mps 667 mmHg 31%
    12:00 +35°C° 0 mm 2 mps 666 mmHg 25%
    13:00 +38°C° 0 mm 2 mps 666 mmHg 18%
    14:00 +38°C° 0 mm 2 mps 665 mmHg 17%
    15:00 +37°C° 0 mm 2 mps 665 mmHg 16%
    16:00 +37°C° 0 mm 2 mps 664 mmHg 16%
    17:00 +35°C° 0 mm 2 mps 664 mmHg 21%
    18:00 +31°C° 0 mm 3 mps 664 mmHg 27%
    19:00 +29°C° 0 mm 3 mps 664 mmHg 32%
    20:00 +27°C° 0 mm 3 mps 664 mmHg 39%
    21:00 +26°C° 0 mm 3 mps 664 mmHg 46%
    22:00 +24°C° 0 mm 3 mps 664 mmHg 54%
    23:00 +22°C° 0 mm 3 mps 664 mmHg 57%

    Pasado mañana, 26 Agosto, Sábado

    Tiempo Temperatura Precipitaciones Viento Presión Humedad
    00:00 +22°C° 0 mm 3 mps 664 mmHg 60%
    01:00 +21°C° 0 mm 3 mps 663 mmHg 63%
    02:00 +20°C° 0 mm 3 mps 663 mmHg 67%
    03:00 +19°C° 0 mm 3 mps 663 mmHg 72%
    04:00 +18°C° 0 mm 2 mps 663 mmHg 77%
    05:00 +18°C° 0 mm 2 mps 663 mmHg 78%
    06:00 +18°C° 0 mm 2 mps 663 mmHg 79%
    07:00 +18°C° 0 mm 2 mps 664 mmHg 80%
    08:00 +23°C° 0 mm 2 mps 665 mmHg 65%
    09:00 +27°C° 0 mm 2 mps 666 mmHg 49%
    10:00 +31°C° 0 mm 1 mps 667 mmHg 34%
    11:00 +33°C° 0 mm 1 mps 667 mmHg 27%
    12:00 +36°C° 0 mm 1 mps 666 mmHg 20%
    13:00 +39°C° 0 mm 1 mps 666 mmHg 14%
    14:00 +39°C° 0 mm 1 mps 665 mmHg 13%
    15:00 +39°C° 0 mm 2 mps 664 mmHg 12%
    16:00 +38°C° 0 mm 2 mps 664 mmHg 11%
    17:00 +36°C° 0 mm 2 mps 664 mmHg 15%
    18:00 +32°C° 0 mm 2 mps 663 mmHg 19%
    19:00 +29°C° 0 mm 2 mps 663 mmHg 23%
    20:00 +28°C° 0 mm 3 mps 663 mmHg 33%
    21:00 +26°C° 0 mm 3 mps 664 mmHg 43%
    22:00 +23°C° 0 mm 4 mps 664 mmHg 53%
    23:00 +22°C° 0 mm 3 mps 663 mmHg 58%

    27 Agosto, Domingo

    Tiempo Temperatura Precipitaciones Viento Presión Humedad
    00:00 +21°C° 0 mm 3 mps 663 mmHg 62%
    01:00 +20°C° 0 mm 3 mps 663 mmHg 67%
    02:00 +19°C° 0 mm 3 mps 663 mmHg 72%
    03:00 +18°C° 0 mm 3 mps 663 mmHg 77%
    04:00 +17°C° 0 mm 2 mps 662 mmHg 82%
    05:00 +17°C° 0 mm 3 mps 663 mmHg 81%
    06:00 +17°C° 0 mm 3 mps 663 mmHg 80%
    07:00 +17°C° 0 mm 3 mps 664 mmHg 80%
    08:00 +21°C° 0 mm 2 mps 665 mmHg 65%
    09:00 +26°C° 0 mm 2 mps 666 mmHg 50%
    10:00 +29°C° 0 mm 2 mps 667 mmHg 35%
    11:00 +32°C° 0 mm 2 mps 666 mmHg 29%
    12:00 +35°C° 0 mm 2 mps 666 mmHg 23%
    13:00 +38°C° 0 mm 2 mps 665 mmHg 18%
    14:00 +37°C° 0 mm 2 mps 665 mmHg 18%
    15:00 +37°C° 0 mm 2 mps 664 mmHg 17%
    16:00 +36°C° 0 mm 2 mps 664 mmHg 17%
    17:00 +35°C° 0 mm 2 mps 664 mmHg 21%
    18:00 +32°C° 0 mm 2 mps 664 mmHg 24%
    19:00 +30°C° 0 mm 2 mps 665 mmHg 28%
    20:00 +28°C° 0 mm 3 mps 665 mmHg 33%
    21:00 +27°C° 0 mm 3 mps 665 mmHg 39%
    22:00 +25°C° 0 mm 3 mps 665 mmHg 44%
    23:00 +24°C° 0 mm 3 mps 664 mmHg 50%

    28 Agosto, Lunes

    Tiempo Temperatura Precipitaciones Viento Presión Humedad
    00:00 +21°C° 0 mm 3 mps 664 mmHg 57%
    01:00 +20°C° 0 mm 3 mps 664 mmHg 63%
    02:00 +19°C° 0 mm 3 mps 663 mmHg 69%
    03:00 +18°C° 0 mm 3 mps 663 mmHg 74%
    04:00 +17°C° 0 mm 3 mps 663 mmHg 80%
    05:00 +17°C° 0 mm 3 mps 664 mmHg 79%
    06:00 +17°C° 0 mm 3 mps 664 mmHg 78%
    07:00 +17°C° 0 mm 2 mps 665 mmHg 78%
    08:00 +21°C° 0 mm 2 mps 665 mmHg 64%
    09:00 +25°C° 0 mm 2 mps 666 mmHg 51%
    10:00 +29°C° 0 mm 2 mps 667 mmHg 37%
    11:00 +31°C° 0 mm 2 mps 667 mmHg 32%
    12:00 +35°C° 0 mm 2 mps 666 mmHg 27%
    13:00 +37°C° 0 mm 1 mps 666 mmHg 21%
    14:00 +36°C° 0 mm 1 mps 666 mmHg 21%
    15:00 +35°C° 0 mm 1 mps 665 mmHg 21%
    16:00 +36°C° 0 mm 2 mps 665 mmHg 21%
    17:00 +34°C° 0 mm 2 mps 665 mmHg 24%
    18:00 +31°C° 0 mm 3 mps 665 mmHg 27%
    19:00 +29°C° 0 mm 3 mps 665 mmHg 30%
    20:00 +27°C° 0 mm 3 mps 665 mmHg 34%
    21:00 +26°C° 0 mm 4 mps 665 mmHg 38%
    22:00 +23°C° 0 mm 4 mps 665 mmHg 42%
    23:00 +22°C° 0 mm 4 mps 665 mmHg 50%

    29 Agosto, Martes

    Tiempo Temperatura Precipitaciones Viento Presión Humedad
    00:00 +20°C° 0 mm 4 mps 664 mmHg 58%
    01:00 +19°C° 0 mm 4 mps 664 mmHg 66%
    02:00 +18°C° 0 mm 4 mps 664 mmHg 70%
    03:00 +18°C° 0 mm 3 mps 664 mmHg 73%
    04:00 +17°C° 0 mm 3 mps 664 mmHg 76%
    05:00 +17°C° 0 mm 3 mps 664 mmHg 75%
    06:00 +17°C° 0 mm 3 mps 665 mmHg 74%
    07:00 +17°C° 0 mm 3 mps 665 mmHg 73%
    08:00 +20°C° 0 mm 3 mps 666 mmHg 59%
    09:00 +24°C° 0 mm 3 mps 666 mmHg 46%
    10:00 +28°C° 0 mm 3 mps 667 mmHg 32%
    11:00 +30°C° 0 mm 2 mps 667 mmHg 28%
    12:00 +34°C° 0 mm 2 mps 666 mmHg 24%
    13:00 +36°C° 0 mm 1 mps 666 mmHg 19%
    14:00 +36°C° 0 mm 1 mps 665 mmHg 19%
    15:00 +36°C° 0 mm 1 mps 665 mmHg 19%
    16:00 +35°C° 0 mm 1 mps 664 mmHg 18%
    17:00 +34°C° 0 mm 2 mps 664 mmHg 21%
    18:00 +31°C° 0 mm 2 mps 664 mmHg 25%
    19:00 +29°C° 0 mm 2 mps 664 mmHg 28%
    20:00 +27°C° 0 mm 3 mps 664 mmHg 32%
    21:00 +26°C° 0 mm 3 mps 664 mmHg 36%
    22:00 +24°C° 0 mm 3 mps 664 mmHg 40%
    23:00 +22°C° 0 mm 3 mps 664 mmHg 47%
    Mostrar más